NOK196 VTBD-VTPM

Flight info

Callsign NOK196
Flight time 0h 42m
Altitude 28000
Route OLVUK3A OLVUK Y26 NUVLU Y30 URGUM URGUM1W
Aircraft B738/M-SDE2E3FGHIRWXY/LB1

Departure

Time 2026-05-07 07:53
Airport Don Mueang International Airport (VTBD)

Arrival

Time 2026-05-07 08:36
Airport Mae Sot Airport (VTPM)
Time Latitude Longitude Altitude Speed Heading
2026-05-07 06:45 13.91788 100.60329 16 ft 0 kts 28°
2026-05-07 07:43 13.91775 100.60321 16 ft 2 kts 29°
2026-05-07 07:44 13.91760 100.60313 17 ft 2 kts 12°
2026-05-07 07:44 13.91744 100.60310 20 ft 2 kts 18°
2026-05-07 07:44 13.91729 100.60303 18 ft 2 kts 42°
2026-05-07 07:44 13.91722 100.60289 16 ft 2 kts 106°
2026-05-07 07:45 13.91729 100.60274 17 ft 1 kts 119°
2026-05-07 07:45 13.91730 100.60272 20 ft 0 kts 119°
2026-05-07 07:47 13.91720 100.60290 16 ft 7 kts 119°
2026-05-07 07:47 13.91684 100.60359 16 ft 13 kts 118°
2026-05-07 07:47 13.91636 100.60442 16 ft 13 kts 121°
2026-05-07 07:47 13.91673 100.60512 16 ft 13 kts 28°
2026-05-07 07:48 13.91752 100.60555 16 ft 13 kts 28°
2026-05-07 07:48 13.91848 100.60609 16 ft 17 kts 28°
2026-05-07 07:48 13.91950 100.60667 18 ft 16 kts 29°
2026-05-07 07:48 13.92047 100.60722 19 ft 16 kts 29°
2026-05-07 07:49 13.92142 100.60776 17 ft 15 kts 28°
2026-05-07 07:49 13.92234 100.60827 17 ft 15 kts 28°
2026-05-07 07:49 13.92321 100.60875 17 ft 14 kts 28°
2026-05-07 07:49 13.92404 100.60922 19 ft 13 kts 28°
2026-05-07 07:50 13.92484 100.60967 16 ft 13 kts 28°
2026-05-07 07:50 13.92562 100.61010 16 ft 13 kts 28°
2026-05-07 07:50 13.92637 100.61054 19 ft 12 kts 41°
2026-05-07 07:50 13.92640 100.61113 17 ft 8 kts 120°
2026-05-07 07:51 13.92609 100.61168 15 ft 10 kts 119°
2026-05-07 07:51 13.92575 100.61231 15 ft 10 kts 119°
2026-05-07 07:51 13.92542 100.61292 15 ft 10 kts 119°
2026-05-07 07:51 13.92509 100.61353 16 ft 10 kts 119°
2026-05-07 07:52 13.92471 100.61425 17 ft 12 kts 118°
2026-05-07 07:52 13.92422 100.61503 14 ft 13 kts 142°
2026-05-07 07:52 13.92354 100.61499 14 ft 9 kts 208°
2026-05-07 07:52 13.92205 100.61415 15 ft 55 kts 208°
2026-05-07 07:53 13.91650 100.61104 17 ft 124 kts 208°
2026-05-07 07:53 13.90725 100.60581 88 ft 174 kts 209°
2026-05-07 07:53 13.89605 100.59950 670 ft 191 kts 208°
2026-05-07 07:53 13.88424 100.59282 1475 ft 193 kts 208°
2026-05-07 07:54 13.87386 100.58412 2182 ft 206 kts 238°
2026-05-07 07:54 13.87086 100.56949 2384 ft 232 kts 278°
2026-05-07 07:54 13.87667 100.55442 2669 ft 249 kts 296°
2026-05-07 07:54 13.88496 100.53776 2943 ft 271 kts 296°
2026-05-07 07:55 13.89354 100.52023 3652 ft 274 kts 301°
2026-05-07 07:55 13.90706 100.50683 4476 ft 274 kts 335°
2026-05-07 07:55 13.92527 100.50127 5269 ft 275 kts 348°
2026-05-07 07:55 13.94410 100.49691 6008 ft 280 kts 349°
2026-05-07 07:56 13.96322 100.49257 6760 ft 282 kts 349°
2026-05-07 07:56 13.98242 100.48816 7498 ft 285 kts 348°
2026-05-07 07:56 14.00166 100.48368 8206 ft 288 kts 348°
2026-05-07 07:56 14.02124 100.47905 8926 ft 291 kts 348°
2026-05-07 07:57 14.04107 100.47429 9665 ft 294 kts 348°
2026-05-07 07:57 14.06119 100.46944 10168 ft 304 kts 348°
2026-05-07 07:57 14.08253 100.46429 10318 ft 326 kts 348°
2026-05-07 07:57 14.10524 100.45878 10638 ft 340 kts 348°
2026-05-07 07:58 14.12840 100.45313 11210 ft 345 kts 348°
2026-05-07 07:58 14.15187 100.44738 11851 ft 348 kts 348°
2026-05-07 07:58 14.17517 100.44166 12478 ft 351 kts 348°
2026-05-07 07:58 14.19908 100.43579 13125 ft 355 kts 348°
2026-05-07 07:59 14.22319 100.42988 13752 ft 359 kts 348°
2026-05-07 07:59 14.24762 100.42388 14336 ft 362 kts 348°
2026-05-07 07:59 14.27224 100.41784 14950 ft 365 kts 348°
2026-05-07 07:59 14.29705 100.41174 15544 ft 369 kts 348°
2026-05-07 08:00 14.32213 100.40559 16132 ft 372 kts 348°
2026-05-07 08:00 14.34706 100.39946 16726 ft 375 kts 348°
2026-05-07 08:00 14.37261 100.39319 17302 ft 379 kts 348°
2026-05-07 08:00 14.39836 100.38686 17864 ft 382 kts 348°
2026-05-07 08:01 14.42435 100.38047 18379 ft 386 kts 348°
2026-05-07 08:01 14.45054 100.37403 18861 ft 389 kts 348°
2026-05-07 08:01 14.47701 100.36752 19346 ft 392 kts 348°
2026-05-07 08:01 14.50362 100.36097 19828 ft 395 kts 348°
2026-05-07 08:02 14.52999 100.35449 20293 ft 398 kts 348°
2026-05-07 08:02 14.55706 100.34782 20752 ft 401 kts 348°
2026-05-07 08:02 14.58430 100.34112 21205 ft 404 kts 348°
2026-05-07 08:02 14.61171 100.33437 21652 ft 407 kts 348°
2026-05-07 08:03 14.63935 100.32756 22091 ft 410 kts 348°
2026-05-07 08:03 14.66718 100.32070 22512 ft 413 kts 348°
2026-05-07 08:03 14.69523 100.31379 22936 ft 416 kts 348°
2026-05-07 08:03 14.72347 100.30683 23345 ft 419 kts 348°
2026-05-07 08:04 14.75187 100.29983 23695 ft 421 kts 348°
2026-05-07 08:04 14.78003 100.29288 24049 ft 423 kts 348°
2026-05-07 08:04 14.80869 100.28580 24422 ft 424 kts 348°
2026-05-07 08:04 14.83747 100.27870 24776 ft 426 kts 348°
2026-05-07 08:05 14.86636 100.27157 25121 ft 428 kts 348°
2026-05-07 08:05 14.89536 100.26430 25471 ft 430 kts 346°
2026-05-07 08:05 14.92376 100.25424 25797 ft 433 kts 340°
2026-05-07 08:05 14.95176 100.24251 26138 ft 435 kts 339°
2026-05-07 08:06 14.97973 100.23042 26469 ft 437 kts 338°
2026-05-07 08:06 15.00742 100.21836 26791 ft 439 kts 338°
2026-05-07 08:06 15.03562 100.20614 27127 ft 440 kts 338°
2026-05-07 08:06 15.06399 100.19393 27445 ft 442 kts 338°
2026-05-07 08:07 15.09247 100.18175 27744 ft 444 kts 339°
2026-05-07 08:07 15.12121 100.16951 27766 ft 449 kts 339°
2026-05-07 08:07 15.15014 100.15723 27783 ft 449 kts 339°
2026-05-07 08:07 15.17895 100.14500 27769 ft 445 kts 339°
2026-05-07 08:08 15.20712 100.13305 27776 ft 443 kts 339°
2026-05-07 08:08 15.23566 100.12093 27787 ft 445 kts 339°
2026-05-07 08:08 15.26436 100.10875 27794 ft 446 kts 339°
2026-05-07 08:08 15.29308 100.09655 27779 ft 447 kts 339°
2026-05-07 08:09 15.32189 100.08431 27777 ft 448 kts 339°
2026-05-07 08:09 15.35070 100.07206 27775 ft 447 kts 339°
2026-05-07 08:09 15.37949 100.05982 27780 ft 447 kts 339°
2026-05-07 08:09 15.40825 100.04758 27775 ft 446 kts 339°
2026-05-07 08:10 15.43656 100.03554 27776 ft 446 kts 339°
2026-05-07 08:10 15.46521 100.02334 27777 ft 445 kts 339°
2026-05-07 08:10 15.49382 100.01115 27775 ft 444 kts 339°
2026-05-07 08:10 15.52239 99.99899 27775 ft 444 kts 339°
2026-05-07 08:11 15.55093 99.98683 27775 ft 443 kts 339°
2026-05-07 08:11 15.57943 99.97469 27778 ft 443 kts 339°
2026-05-07 08:11 15.60792 99.96254 27783 ft 443 kts 339°
2026-05-07 08:11 15.63603 99.95056 27787 ft 443 kts 339°
2026-05-07 08:12 15.66453 99.93840 27774 ft 443 kts 339°
2026-05-07 08:12 15.69304 99.92624 27777 ft 443 kts 338°
2026-05-07 08:12 15.72159 99.91405 27785 ft 443 kts 339°
2026-05-07 08:12 15.75014 99.90186 27772 ft 444 kts 338°
2026-05-07 08:13 15.77870 99.88967 27775 ft 443 kts 338°
2026-05-07 08:13 15.80688 99.87762 27759 ft 432 kts 338°
2026-05-07 08:13 15.83441 99.86585 27767 ft 425 kts 338°
2026-05-07 08:13 15.86133 99.85434 27776 ft 423 kts 338°
2026-05-07 08:14 15.88859 99.84269 27787 ft 425 kts 338°
2026-05-07 08:14 15.91602 99.83096 27446 ft 427 kts 338°
2026-05-07 08:14 15.94330 99.81929 27064 ft 422 kts 338°
2026-05-07 08:14 15.97030 99.80773 26619 ft 419 kts 338°
2026-05-07 08:15 15.99718 99.79623 26184 ft 416 kts 338°
2026-05-07 08:15 16.02386 99.78480 25738 ft 414 kts 338°
2026-05-07 08:15 16.05041 99.77343 25266 ft 412 kts 338°
2026-05-07 08:15 16.07654 99.76224 24816 ft 411 kts 338°
2026-05-07 08:16 16.10293 99.75093 24363 ft 410 kts 338°
2026-05-07 08:16 16.12925 99.73964 23910 ft 409 kts 338°
2026-05-07 08:16 16.15550 99.72839 23454 ft 408 kts 338°
2026-05-07 08:16 16.18168 99.71716 22934 ft 407 kts 338°
2026-05-07 08:17 16.20779 99.70595 22460 ft 404 kts 338°
2026-05-07 08:17 16.23370 99.69483 22001 ft 402 kts 338°
2026-05-07 08:17 16.25945 99.68377 21548 ft 399 kts 338°
2026-05-07 08:17 16.28471 99.67292 21095 ft 396 kts 338°
2026-05-07 08:18 16.31013 99.66200 20673 ft 394 kts 338°
2026-05-07 08:18 16.33535 99.65117 20236 ft 392 kts 338°
2026-05-07 08:18 16.36059 99.64067 19766 ft 390 kts 341°
2026-05-07 08:18 16.38625 99.63152 19294 ft 389 kts 343°
2026-05-07 08:19 16.41201 99.62302 18849 ft 388 kts 343°
2026-05-07 08:19 16.43769 99.61468 18409 ft 386 kts 343°
2026-05-07 08:19 16.46328 99.60631 17954 ft 385 kts 343°
2026-05-07 08:19 16.48874 99.59788 17478 ft 382 kts 343°
2026-05-07 08:20 16.51365 99.58955 17024 ft 380 kts 343°
2026-05-07 08:20 16.53871 99.58111 16586 ft 377 kts 343°
2026-05-07 08:20 16.56352 99.57274 16163 ft 374 kts 343°
2026-05-07 08:20 16.58818 99.56442 15748 ft 371 kts 343°
2026-05-07 08:21 16.61266 99.55615 15338 ft 368 kts 342°
2026-05-07 08:21 16.63692 99.54797 14931 ft 365 kts 343°
2026-05-07 08:21 16.66059 99.53868 14500 ft 364 kts 331°
2026-05-07 08:21 16.68008 99.52207 14093 ft 363 kts 310°
2026-05-07 08:22 16.69254 99.49973 13707 ft 362 kts 291°
2026-05-07 08:22 16.69753 99.47415 13271 ft 361 kts 274°
2026-05-07 08:22 16.69824 99.44807 12859 ft 358 kts 271°
2026-05-07 08:22 16.69835 99.42226 12428 ft 352 kts 270°
2026-05-07 08:23 16.69834 99.39707 12023 ft 342 kts 270°
2026-05-07 08:23 16.69836 99.37267 11630 ft 332 kts 270°
2026-05-07 08:23 16.69846 99.34897 11267 ft 322 kts 271°
2026-05-07 08:23 16.69862 99.32634 11063 ft 313 kts 271°
2026-05-07 08:24 16.69881 99.30367 10736 ft 313 kts 271°
2026-05-07 08:24 16.69904 99.28107 10507 ft 308 kts 271°
2026-05-07 08:24 16.69927 99.25928 10358 ft 294 kts 271°
2026-05-07 08:24 16.69950 99.23827 10236 ft 285 kts 271°
2026-05-07 08:25 16.69972 99.21782 10101 ft 281 kts 271°
2026-05-07 08:25 16.69995 99.19718 9833 ft 287 kts 271°
2026-05-07 08:25 16.70018 99.17662 9564 ft 287 kts 271°
2026-05-07 08:25 16.70041 99.15608 9249 ft 279 kts 271°
2026-05-07 08:26 16.70083 99.11661 8676 ft 265 kts 271°
2026-05-07 08:26 16.70103 99.09771 8427 ft 257 kts 271°
2026-05-07 08:26 16.70123 99.07928 8170 ft 250 kts 271°
2026-05-07 08:27 16.70142 99.06134 7932 ft 246 kts 271°
2026-05-07 08:27 16.70161 99.04358 7700 ft 245 kts 271°
2026-05-07 08:27 16.70179 99.02609 7484 ft 244 kts 271°
2026-05-07 08:27 16.70197 99.00834 7267 ft 246 kts 271°
2026-05-07 08:28 16.70217 98.99044 7016 ft 246 kts 272°
2026-05-07 08:28 16.70373 98.97268 6790 ft 245 kts 277°
2026-05-07 08:28 16.70527 98.95499 6558 ft 245 kts 273°
2026-05-07 08:28 16.70577 98.93726 6331 ft 244 kts 271°
2026-05-07 08:29 16.70571 98.91961 6089 ft 243 kts 270°
2026-05-07 08:29 16.70546 98.90217 5831 ft 237 kts 269°
2026-05-07 08:29 16.70518 98.88539 5589 ft 232 kts 269°
2026-05-07 08:29 16.70490 98.86873 5343 ft 230 kts 269°
2026-05-07 08:30 16.70461 98.85212 5118 ft 228 kts 269°
2026-05-07 08:30 16.70435 98.83582 5044 ft 223 kts 269°
2026-05-07 08:30 16.70408 98.81984 5024 ft 218 kts 269°
2026-05-07 08:30 16.70383 98.80416 5035 ft 212 kts 269°
2026-05-07 08:31 16.70360 98.78928 5005 ft 198 kts 269°
2026-05-07 08:31 16.70338 98.77565 4996 ft 186 kts 269°
2026-05-07 08:31 16.70317 98.76222 4967 ft 187 kts 269°
2026-05-07 08:31 16.70295 98.74837 4686 ft 192 kts 269°
2026-05-07 08:32 16.70273 98.73455 4410 ft 190 kts 269°
2026-05-07 08:32 16.70252 98.72079 4112 ft 189 kts 269°
2026-05-07 08:32 16.70230 98.70717 3820 ft 186 kts 269°
2026-05-07 08:32 16.70210 98.69390 3554 ft 181 kts 269°
2026-05-07 08:33 16.70190 98.68103 3268 ft 175 kts 268°
2026-05-07 08:33 16.70170 98.66858 3015 ft 170 kts 268°
2026-05-07 08:33 16.70152 98.65652 2783 ft 168 kts 268°
2026-05-07 08:33 16.70134 98.64435 2538 ft 167 kts 268°
2026-05-07 08:34 16.70117 98.63251 2308 ft 162 kts 268°
2026-05-07 08:34 16.70096 98.62077 2035 ft 160 kts 268°
2026-05-07 08:34 16.70082 98.60921 1795 ft 158 kts 270°
2026-05-07 08:34 16.70065 98.59778 1558 ft 156 kts 269°
2026-05-07 08:35 16.70047 98.58642 1334 ft 156 kts 268°
2026-05-07 08:35 16.70028 98.57522 1065 ft 150 kts 270°
2026-05-07 08:35 16.70019 98.56470 824 ft 146 kts 268°
2026-05-07 08:35 16.69995 98.55423 689 ft 138 kts 268°
2026-05-07 08:36 16.69985 98.54641 685 ft 49 kts 269°
2026-05-07 08:36 16.69981 98.54438 689 ft 24 kts 269°
2026-05-07 08:36 16.70038 98.54347 691 ft 15 kts
2026-05-07 08:36 16.70123 98.54347 688 ft 6 kts 358°
2026-05-07 08:37 16.70153 98.54370 686 ft 6 kts 76°
2026-05-07 08:37 16.70152 98.54418 692 ft 7 kts 90°
2026-05-07 08:37 16.70153 98.54475 691 ft 9 kts 89°
2026-05-07 08:37 16.70153 98.54523 692 ft 4 kts 89°
2026-05-07 08:38 16.70170 98.54542 685 ft 4 kts 14°
2026-05-07 08:38 16.70192 98.54542 687 ft 1 kts 359°
2026-05-07 08:38 16.70195 98.54542 688 ft 0 kts 359°
2026-05-07 08:38 16.70199 98.54542 689 ft 0 kts 359°
2026-05-07 08:39 16.70200 98.54542 685 ft 0 kts 359°